Location: Newark
(35.1686°N, 108.2815°E)
Time: 03:06:48
(UTC+00:00)

Hubble Space Telescope - Pass Details

Date: 09 April 2020
Orbit: 536 x 540 km, 28.5° (Epoch: 28 May)

Event Time Altitude Azimuth Distance (km) Brightness Sun altitude
Rises 12:32:39 0° 248° (WSW) 2,665 5.0 -16.1°
Reaches altitude 10° 12:35:05 10° 238° (WSW) 1,776 3.9 -16.5°
Maximum altitude 12:38:43 31° 175° (S) 956 1.8 -17.2°
Enters shadow 12:39:22 29° 157° (SSE) 993 1.7 -17.4°
